Time,TemperatureF,DewpointF,PressureIn,WindDirection,WindDirectionDegrees,WindSpeedMPH,WindSpeedGustMPH,Humidity,HourlyPrecipIn,Conditions,Clouds,dailyrainin,SoftwareType,DateUTC
2013-07-28 00:02:00,-999.0,-99.9,29.94,West,277,0.0,-999.0,-999,-99.99,,,-99.99,,2013-07-28 04:02:00,
2013-07-28 00:12:00,-999.0,-99.9,29.94,West,277,0.0,-999.0,-999,-99.99,,,-99.99,,2013-07-28 04:12:00,
2013-07-28 00:22:00,-999.0,-99.9,29.94,West,277,0.0,-999.0,-999,-99.99,,,-99.99,,2013-07-28 04:22:00,
2013-07-28 00:32:00,-999.0,-99.9,29.94,West,277,0.0,-999.0,-999,-99.99,,,-99.99,,2013-07-28 04:32:00,
2013-07-28 00:43:00,-999.0,-99.9,29.93,West,277,0.0,-999.0,-999,-99.99,,,-99.99,,2013-07-28 04:43:00,
2013-07-28 00:53:00,-999.0,-99.9,29.93,West,277,0.0,-999.0,-999,-99.99,,,-99.99,,2013-07-28 04:53:00,
2013-07-28 01:02:00,-999.0,-99.9,29.94,West,277,0.0,-999.0,-999,-99.99,,,-99.99,,2013-07-28 05:02:00,
2013-07-28 01:12:00,-999.0,-99.9,29.94,West,261,1.0,-999.0,-999,-99.99,,,-99.99,,2013-07-28 05:12:00,
2013-07-28 01:22:00,-999.0,-99.9,29.94,West,259,0.0,-999.0,-999,-99.99,,,-99.99,,2013-07-28 05:22:00,
2013-07-28 01:32:00,-999.0,-99.9,29.93,West,259,0.0,-999.0,-999,-99.99,,,-99.99,,2013-07-28 05:32:00,
2013-07-28 01:43:00,-999.0,-99.9,29.93,West,259,0.0,-999.0,-999,-99.99,,,-99.99,,2013-07-28 05:43:00,
2013-07-28 01:53:00,-999.0,-99.9,29.93,West,259,0.0,-999.0,-999,-99.99,,,-99.99,,2013-07-28 05:53:00,
2013-07-28 02:02:00,-999.0,-99.9,29.93,West,259,0.0,-999.0,-999,-99.99,,,-99.99,,2013-07-28 06:02:00,
2013-07-28 02:12:00,-999.0,-99.9,29.93,West,259,0.0,-999.0,-999,-99.99,,,-99.99,,2013-07-28 06:12:00,
2013-07-28 02:22:00,-999.0,-99.9,29.93,West,259,0.0,-999.0,-999,-99.99,,,-99.99,,2013-07-28 06:22:00,
2013-07-28 02:32:00,-999.0,-99.9,29.93,West,259,0.0,-999.0,-999,-99.99,,,-99.99,,2013-07-28 06:32:00,
2013-07-28 02:43:00,-999.0,-99.9,29.93,West,259,0.0,-999.0,-999,-99.99,,,-99.99,,2013-07-28 06:43:00,
2013-07-28 02:53:00,-999.0,-99.9,29.93,West,259,0.0,-999.0,-999,-99.99,,,-99.99,,2013-07-28 06:53:00,
2013-07-28 03:02:00,-999.0,-99.9,29.93,West,259,0.0,-999.0,-999,-99.99,,,-99.99,,2013-07-28 07:02:00,
2013-07-28 03:12:00,-999.0,-99.9,29.93,West,259,0.0,-999.0,-999,-99.99,,,-99.99,,2013-07-28 07:12:00,
2013-07-28 03:23:00,-999.0,-99.9,29.93,West,259,0.0,-999.0,-999,-99.99,,,-99.99,,2013-07-28 07:23:00,
2013-07-28 03:32:00,-999.0,-99.9,29.93,West,259,0.0,-999.0,-999,-99.99,,,-99.99,,2013-07-28 07:32:00,
2013-07-28 03:43:00,-999.0,-99.9,29.93,West,259,0.0,-999.0,-999,-99.99,,,-99.99,,2013-07-28 07:43:00,
2013-07-28 03:53:00,-999.0,-99.9,29.93,West,259,0.0,-999.0,-999,-99.99,,,-99.99,,2013-07-28 07:53:00,
2013-07-28 04:02:00,-999.0,-99.9,29.93,West,259,0.0,-999.0,-999,-99.99,,,-99.99,,2013-07-28 08:02:00,
2013-07-28 04:12:00,-999.0,-99.9,29.93,West,259,0.0,-999.0,-999,-99.99,,,-99.99,,2013-07-28 08:12:00,
2013-07-28 04:23:00,-999.0,-99.9,29.93,West,259,0.0,-999.0,-999,-99.99,,,-99.99,,2013-07-28 08:23:00,
2013-07-28 04:33:00,-999.0,-99.9,29.94,WSW,246,1.0,-999.0,-999,-99.99,,,-99.99,,2013-07-28 08:33:00,
2013-07-28 04:43:00,-999.0,-99.9,29.94,WSW,246,0.0,-999.0,-999,-99.99,,,-99.99,,2013-07-28 08:43:00,
2013-07-28 04:53:00,-999.0,-99.9,29.94,WSW,246,1.0,-999.0,-999,-99.99,,,-99.99,,2013-07-28 08:53:00,
2013-07-28 05:02:00,-999.0,-99.9,29.94,WSW,246,0.0,-999.0,-999,-99.99,,,-99.99,,2013-07-28 09:02:00,
2013-07-28 05:12:00,-999.0,-99.9,29.94,WSW,246,0.0,-999.0,-999,-99.99,,,-99.99,,2013-07-28 09:12:00,
2013-07-28 05:22:00,-999.0,-99.9,29.94,WSW,246,0.0,-999.0,-999,-99.99,,,-99.99,,2013-07-28 09:22:00,
2013-07-28 05:32:00,-999.0,-99.9,29.94,WSW,246,0.0,-999.0,-999,-99.99,,,-99.99,,2013-07-28 09:32:00,
2013-07-28 05:43:00,-999.0,-99.9,29.94,WSW,246,0.0,-999.0,-999,-99.99,,,-99.99,,2013-07-28 09:43:00,
2013-07-28 05:53:00,-999.0,-99.9,29.94,WSW,246,0.0,-999.0,-999,-99.99,,,-99.99,,2013-07-28 09:53:00,
2013-07-28 06:02:00,-999.0,-99.9,29.95,WSW,246,0.0,-999.0,-999,-99.99,,,-99.99,,2013-07-28 10:02:00,
2013-07-28 06:12:00,-999.0,-99.9,29.95,WSW,246,0.0,-999.0,-999,-99.99,,,-99.99,,2013-07-28 10:12:00,
2013-07-28 06:22:00,-999.0,-99.9,29.95,WSW,246,0.0,-999.0,-999,-99.99,,,-99.99,,2013-07-28 10:22:00,
2013-07-28 06:33:00,-999.0,-99.9,29.96,WSW,246,0.0,-999.0,-999,-99.99,,,-99.99,,2013-07-28 10:33:00,
2013-07-28 06:42:00,-999.0,-99.9,29.96,WSW,246,0.0,-999.0,-999,-99.99,,,-99.99,,2013-07-28 10:42:00,
2013-07-28 06:53:00,-999.0,-99.9,29.96,WSW,246,0.0,-999.0,-999,-99.99,,,-99.99,,2013-07-28 10:53:00,
2013-07-28 07:02:00,-999.0,-99.9,29.97,WSW,246,0.0,-999.0,-999,-99.99,,,-99.99,,2013-07-28 11:02:00,
2013-07-28 07:12:00,-999.0,-99.9,29.98,WSW,246,0.0,-999.0,-999,-99.99,,,-99.99,,2013-07-28 11:12:00,
2013-07-28 07:22:00,-999.0,-99.9,29.98,WSW,246,0.0,-999.0,-999,-99.99,,,-99.99,,2013-07-28 11:22:00,
2013-07-28 07:33:00,-999.0,-99.9,29.98,WSW,246,0.0,-999.0,-999,-99.99,,,-99.99,,2013-07-28 11:33:00,
2013-07-28 07:43:00,-999.0,-99.9,29.98,WSW,246,0.0,-999.0,-999,-99.99,,,-99.99,,2013-07-28 11:43:00,
2013-07-28 07:54:00,-999.0,-99.9,29.99,WSW,246,0.0,-999.0,-999,-99.99,,,-99.99,,2013-07-28 11:54:00,
2013-07-28 08:03:00,-999.0,-99.9,29.99,WSW,246,0.0,-999.0,-999,-99.99,,,-99.99,,2013-07-28 12:03:00,
2013-07-28 08:13:00,-999.0,-99.9,29.99,WSW,246,0.0,-999.0,-999,-99.99,,,-99.99,,2013-07-28 12:13:00,
2013-07-28 08:22:00,-999.0,-99.9,29.99,WSW,246,0.0,-999.0,-999,-99.99,,,-99.99,,2013-07-28 12:22:00,
2013-07-28 08:33:00,-999.0,-99.9,29.99,WSW,246,0.0,-999.0,-999,-99.99,,,-99.99,,2013-07-28 12:33:00,
2013-07-28 08:43:00,-999.0,-99.9,30.00,WSW,246,0.0,-999.0,-999,-99.99,,,-99.99,,2013-07-28 12:43:00,
2013-07-28 08:53:00,-999.0,-99.9,30.00,WSW,246,0.0,-999.0,-999,-99.99,,,-99.99,,2013-07-28 12:53:00,
2013-07-28 09:02:00,-999.0,-99.9,30.00,WSW,247,0.0,-999.0,-999,-99.99,,,-99.99,,2013-07-28 13:02:00,
2013-07-28 09:12:00,-999.0,-99.9,30.00,WSW,247,0.0,-999.0,-999,-99.99,,,-99.99,,2013-07-28 13:12:00,
2013-07-28 09:22:00,-999.0,-99.9,30.00,WSW,247,0.0,-999.0,-999,-99.99,,,-99.99,,2013-07-28 13:22:00,
2013-07-28 09:32:00,-999.0,-99.9,30.00,West,275,0.0,-999.0,-999,-99.99,,,-99.99,,2013-07-28 13:32:00,
2013-07-28 09:43:00,-999.0,-99.9,30.01,WNW,292,0.0,-999.0,-999,-99.99,,,-99.99,,2013-07-28 13:43:00,
2013-07-28 09:53:00,-999.0,-99.9,30.01,WNW,292,0.0,-999.0,-999,-99.99,,,-99.99,,2013-07-28 13:53:00,
2013-07-28 10:02:00,-999.0,-99.9,30.00,NW,307,0.0,-999.0,-999,-99.99,,,-99.99,,2013-07-28 14:02:00,
2013-07-28 10:12:00,-999.0,-99.9,30.00,NW,307,0.0,-999.0,-999,-99.99,,,-99.99,,2013-07-28 14:12:00,
2013-07-28 10:23:00,-999.0,-99.9,30.01,NW,307,0.0,-999.0,-999,-99.99,,,-99.99,,2013-07-28 14:23:00,
2013-07-28 10:33:00,74.0,70.0,30.00,NW,307,0.0,-999.0,88,-99.99,,,-99.99,,2013-07-28 14:33:00,
2013-07-28 10:53:00,75.0,71.0,30.00,NW,306,0.0,-999.0,88,-99.99,,,-99.99,,2013-07-28 14:53:00,
2013-07-28 11:03:00,76.0,70.0,30.01,NW,306,0.0,-999.0,83,-99.99,,,-99.99,,2013-07-28 15:03:00,
2013-07-28 11:13:00,77.0,72.0,30.01,NW,304,0.0,-999.0,85,-99.99,,,-99.99,,2013-07-28 15:13:00,
2013-07-28 11:32:00,78.0,72.0,30.01,NW,313,0.0,-999.0,83,-99.99,,,-99.99,,2013-07-28 15:32:00,
2013-07-28 11:43:00,78.0,71.0,30.01,WNW,300,0.0,-999.0,80,-99.99,,,-99.99,,2013-07-28 15:43:00,
2013-07-28 11:53:00,78.0,72.0,30.01,WNW,300,0.0,-999.0,81,-99.99,,,-99.99,,2013-07-28 15:53:00,
2013-07-28 12:12:00,79.0,72.0,30.01,WNW,300,1.0,-999.0,78,-99.99,,,-99.99,,2013-07-28 16:12:00,
2013-07-28 12:22:00,79.0,72.0,30.01,WNW,300,0.0,-999.0,79,-99.99,,,-99.99,,2013-07-28 16:22:00,
2013-07-28 12:33:00,79.0,72.0,30.01,WNW,300,0.0,-999.0,78,-99.99,,,-99.99,,2013-07-28 16:33:00,
2013-07-28 12:43:00,80.0,71.0,30.01,West,270,0.0,-999.0,75,-99.99,,,-99.99,,2013-07-28 16:43:00,
2013-07-28 13:02:00,82.0,72.0,30.01,WSW,237,0.0,-999.0,73,-99.99,,,-99.99,,2013-07-28 17:02:00,
2013-07-28 13:13:00,82.0,71.0,30.01,WSW,237,0.0,-999.0,69,-99.99,,,-99.99,,2013-07-28 17:13:00,
2013-07-28 13:23:00,82.0,70.0,30.00,SW,225,0.0,-999.0,68,-99.99,,,-99.99,,2013-07-28 17:23:00,
2013-07-28 13:32:00,83.0,71.0,30.00,WSW,243,1.0,-999.0,68,-99.99,,,-99.99,,2013-07-28 17:32:00,
2013-07-28 13:43:00,-999.0,-99.9,30.00,WSW,238,1.0,-999.0,-999,-99.99,,,-99.99,,2013-07-28 17:43:00,
2013-07-28 13:53:00,-999.0,-99.9,30.00,WSW,238,0.0,-999.0,-999,-99.99,,,-99.99,,2013-07-28 17:53:00,
2013-07-28 14:03:00,-999.0,-99.9,29.99,SW,231,1.0,-999.0,-999,-99.99,,,-99.99,,2013-07-28 18:03:00,
2013-07-28 14:13:00,-999.0,-99.9,30.00,WSW,244,1.0,-999.0,-999,-99.99,,,-99.99,,2013-07-28 18:13:00,
2013-07-28 14:23:00,-999.0,-99.9,29.99,WSW,248,0.0,-999.0,-999,-99.99,,,-99.99,,2013-07-28 18:23:00,
2013-07-28 14:33:00,-999.0,-99.9,29.99,WSW,248,0.0,-999.0,-999,-99.99,,,-99.99,,2013-07-28 18:33:00,
2013-07-28 14:43:00,-999.0,-99.9,29.99,WSW,248,0.0,-999.0,-999,-99.99,,,-99.99,,2013-07-28 18:43:00,
2013-07-28 14:52:00,-999.0,-99.9,29.99,WSW,252,0.0,-999.0,-999,-99.99,,,-99.99,,2013-07-28 18:52:00,
2013-07-28 15:03:00,-999.0,-99.9,29.99,WSW,256,1.0,-999.0,-999,-99.99,,,-99.99,,2013-07-28 19:03:00,
2013-07-28 15:13:00,-999.0,-99.9,29.98,West,260,1.0,-999.0,-999,-99.99,,,-99.99,,2013-07-28 19:13:00,
2013-07-28 15:23:00,-999.0,-99.9,29.98,West,263,0.0,-999.0,-999,-99.99,,,-99.99,,2013-07-28 19:23:00,
2013-07-28 15:33:00,-999.0,-99.9,29.98,West,264,0.0,-999.0,-999,-99.99,,,-99.99,,2013-07-28 19:33:00,
2013-07-28 15:43:00,-999.0,-99.9,29.97,West,263,0.0,-999.0,-999,-99.99,,,-99.99,,2013-07-28 19:43:00,
2013-07-28 15:53:00,-999.0,-99.9,29.97,West,263,0.0,-999.0,-999,-99.99,,,-99.99,,2013-07-28 19:53:00,
2013-07-28 16:03:00,-999.0,-99.9,29.97,SW,221,1.0,-999.0,-999,-99.99,,,-99.99,,2013-07-28 20:03:00,
2013-07-28 16:13:00,-999.0,-99.9,29.97,West,267,1.0,-999.0,-999,-99.99,,,-99.99,,2013-07-28 20:13:00,
2013-07-28 16:23:00,-999.0,-99.9,29.97,West,267,0.0,-999.0,-999,-99.99,,,-99.99,,2013-07-28 20:23:00,
2013-07-28 16:33:00,-999.0,-99.9,29.97,West,265,0.0,-999.0,-999,-99.99,,,-99.99,,2013-07-28 20:33:00,
2013-07-28 16:43:00,-999.0,-99.9,29.97,WSW,255,1.0,-999.0,-999,-99.99,,,-99.99,,2013-07-28 20:43:00,
2013-07-28 16:53:00,-999.0,-99.9,29.98,West,265,1.0,-999.0,-999,-99.99,,,-99.99,,2013-07-28 20:53:00,
2013-07-28 17:03:00,-999.0,-99.9,29.98,West,265,0.0,-999.0,-999,-99.99,,,-99.99,,2013-07-28 21:03:00,
2013-07-28 17:13:00,-999.0,-99.9,29.98,West,266,1.0,-999.0,-999,-99.99,,,-99.99,,2013-07-28 21:13:00,
2013-07-28 17:23:00,-999.0,-99.9,29.98,West,267,0.0,-999.0,-999,-99.99,,,-99.99,,2013-07-28 21:23:00,
2013-07-28 17:33:00,-999.0,-99.9,29.98,West,267,0.0,-999.0,-999,-99.99,,,-99.99,,2013-07-28 21:33:00,
2013-07-28 17:44:00,-999.0,-99.9,29.98,West,271,0.0,-999.0,-999,-99.99,,,-99.99,,2013-07-28 21:44:00,
2013-07-28 17:52:00,-999.0,-99.9,29.98,West,271,0.0,-999.0,-999,-99.99,,,-99.99,,2013-07-28 21:52:00,
2013-07-28 18:02:00,-999.0,-99.9,29.98,WNW,294,0.0,-999.0,-999,-99.99,,,-99.99,,2013-07-28 22:02:00,
2013-07-28 18:12:00,-999.0,-99.9,29.98,WNW,294,0.0,-999.0,-999,-99.99,,,-99.99,,2013-07-28 22:12:00,
2013-07-28 18:22:00,-999.0,-99.9,29.98,WNW,294,0.0,-999.0,-999,-99.99,,,-99.99,,2013-07-28 22:22:00,
2013-07-28 18:32:00,-999.0,-99.9,29.98,WNW,296,0.0,-999.0,-999,-99.99,,,-99.99,,2013-07-28 22:32:00,
2013-07-28 18:43:00,-999.0,-99.9,29.98,WNW,296,0.0,-999.0,-999,-99.99,,,-99.99,,2013-07-28 22:43:00,
2013-07-28 18:52:00,-999.0,-99.9,29.98,WNW,296,0.0,-999.0,-999,-99.99,,,-99.99,,2013-07-28 22:52:00,
2013-07-28 19:03:00,-999.0,-99.9,29.97,WNW,296,0.0,-999.0,-999,-99.99,,,-99.99,,2013-07-28 23:03:00,
2013-07-28 19:12:00,-999.0,-99.9,29.97,WNW,296,0.0,-999.0,-999,-99.99,,,-99.99,,2013-07-28 23:12:00,
2013-07-28 19:22:00,-999.0,-99.9,29.98,WNW,296,0.0,-999.0,-999,-99.99,,,-99.99,,2013-07-28 23:22:00,
2013-07-28 19:33:00,-999.0,-99.9,29.98,WNW,296,0.0,-999.0,-999,-99.99,,,-99.99,,2013-07-28 23:33:00,
2013-07-28 19:43:00,-999.0,-99.9,29.98,WNW,296,0.0,-999.0,-999,-99.99,,,-99.99,,2013-07-28 23:43:00,
2013-07-28 19:53:00,-999.0,-99.9,29.99,WNW,296,0.0,-999.0,-999,-99.99,,,-99.99,,2013-07-28 23:53:00,
2013-07-28 20:03:00,-999.0,-99.9,29.99,WNW,296,0.0,-999.0,-999,-99.99,,,-99.99,,2013-07-29 00:03:00,
2013-07-28 20:12:00,-999.0,-99.9,29.99,WNW,296,0.0,-999.0,-999,-99.99,,,-99.99,,2013-07-29 00:12:00,
2013-07-28 20:22:00,-999.0,-99.9,29.99,WNW,296,0.0,-999.0,-999,-99.99,,,-99.99,,2013-07-29 00:22:00,
2013-07-28 20:32:00,-999.0,-99.9,30.00,WNW,296,0.0,-999.0,-999,-99.99,,,-99.99,,2013-07-29 00:32:00,
2013-07-28 20:43:00,-999.0,-99.9,30.00,WNW,296,0.0,-999.0,-999,-99.99,,,-99.99,,2013-07-29 00:43:00,
2013-07-28 20:52:00,-999.0,-99.9,30.00,WNW,295,0.0,-999.0,-999,-99.99,,,-99.99,,2013-07-29 00:52:00,
2013-07-28 21:02:00,71.0,-99.9,30.00,WNW,296,0.0,-999.0,-999,-99.99,,,-99.99,,2013-07-29 01:02:00,
2013-07-28 21:14:00,71.0,63.0,30.01,WNW,296,0.0,-999.0,77,-99.99,,,-99.99,,2013-07-29 01:14:00,
2013-07-28 22:05:00,69.0,63.0,30.04,WNW,296,0.0,-999.0,82,-99.99,,,-99.99,,2013-07-29 02:05:00,
2013-07-28 22:14:00,69.0,63.0,30.04,WNW,296,0.0,-999.0,82,-99.99,,,-99.99,,2013-07-29 02:14:00,
2013-07-28 22:37:00,69.0,64.0,30.05,WNW,296,0.0,-999.0,83,-99.99,,,-99.99,,2013-07-29 02:37:00,
2013-07-28 23:04:00,68.0,63.0,30.06,WNW,296,0.0,-999.0,84,-99.99,,,-99.99,,2013-07-29 03:04:00,
2013-07-28 23:17:00,68.0,63.0,30.06,WNW,296,0.0,-999.0,84,-99.99,,,-99.99,,2013-07-29 03:17:00,
2013-07-28 23:36:00,68.0,63.0,30.07,WNW,296,0.0,-999.0,85,-99.99,,,-99.99,,2013-07-29 03:36:00,
2013-07-28 23:48:00,67.0,63.0,30.07,WNW,296,0.0,-999.0,86,-99.99,,,-99.99,,2013-07-29 03:48:00,